NOZ1AB ENGM-ESSA

Flight info

Callsign NOZ1AB
Flight time 0h 40m
Altitude 29000
Route MASEV Z183 LEGPO DCT ELTOK
Aircraft B738/M-SDE2E3FGHIRWXY/LB1

Departure

Time 2026-05-06 20:00
Airport Oslo-Gardermoen International Airport (ENGM)

Arrival

Time 2026-05-06 20:41
Airport Stockholm-Arlanda Airport (ESSA)
Time Latitude Longitude Altitude Speed Heading
2026-05-06 19:24 60.19679 11.10233 681 ft 0 kts 286°
2026-05-06 19:51 60.19675 11.10262 681 ft 2 kts 286°
2026-05-06 19:51 60.19670 11.10294 681 ft 2 kts 286°
2026-05-06 19:52 60.19666 11.10326 675 ft 2 kts 286°
2026-05-06 19:52 60.19662 11.10350 679 ft 1 kts 286°
2026-05-06 19:52 60.19662 11.10352 679 ft 0 kts 286°
2026-05-06 19:56 60.19666 11.10346 678 ft 1 kts 324°
2026-05-06 19:56 60.19674 11.10353 678 ft 2 kts 37°
2026-05-06 19:56 60.19700 11.10406 681 ft 9 kts 46°
2026-05-06 19:56 60.19753 11.10494 681 ft 10 kts 25°
2026-05-06 19:57 60.19820 11.10537 681 ft 10 kts 16°
2026-05-06 19:57 60.19877 11.10605 682 ft 10 kts 65°
2026-05-06 19:57 60.19869 11.10737 683 ft 10 kts 107°
2026-05-06 19:57 60.19848 11.10879 682 ft 12 kts 106°
2026-05-06 19:58 60.19822 11.11061 679 ft 15 kts 106°
2026-05-06 19:58 60.19791 11.11282 679 ft 18 kts 106°
2026-05-06 19:58 60.19740 11.11514 685 ft 18 kts 109°
2026-05-06 19:58 60.19707 11.11738 680 ft 13 kts 106°
2026-05-06 19:59 60.19654 11.11876 688 ft 13 kts 143°
2026-05-06 19:59 60.19576 11.11932 688 ft 12 kts 191°
2026-05-06 19:59 60.19490 11.11886 683 ft 16 kts 196°
2026-05-06 19:59 60.19222 11.11730 684 ft 76 kts 196°
2026-05-06 20:00 60.18477 11.11299 681 ft 143 kts 196°
2026-05-06 20:00 60.17402 11.10629 1058 ft 164 kts 198°
2026-05-06 20:00 60.16320 11.09971 1972 ft 164 kts 199°
2026-05-06 20:00 60.15203 11.09322 2646 ft 173 kts 197°
2026-05-06 20:01 60.13944 11.09127 3238 ft 191 kts 175°
2026-05-06 20:01 60.12639 11.09894 3920 ft 201 kts 153°
2026-05-06 20:01 60.11546 11.11735 4442 ft 213 kts 132°
2026-05-06 20:01 60.10547 11.13998 4954 ft 224 kts 133°
2026-05-06 20:02 60.09450 11.16422 5405 ft 242 kts 133°
2026-05-06 20:02 60.08432 11.19147 6136 ft 249 kts 114°
2026-05-06 20:02 60.08102 11.22658 6588 ft 268 kts 86°
2026-05-06 20:02 60.08340 11.26433 7213 ft 277 kts 81°
2026-05-06 20:03 60.08672 11.30281 7972 ft 283 kts 80°
2026-05-06 20:03 60.09025 11.34184 8776 ft 287 kts 81°
2026-05-06 20:03 60.09347 11.38158 9563 ft 291 kts 82°
2026-05-06 20:03 60.09655 11.42207 10232 ft 299 kts 83°
2026-05-06 20:04 60.09977 11.46506 10436 ft 324 kts 82°
2026-05-06 20:04 60.10321 11.51098 10781 ft 340 kts 82°
2026-05-06 20:04 60.10676 11.55792 11356 ft 349 kts 82°
2026-05-06 20:04 60.11044 11.60650 12028 ft 356 kts 82°
2026-05-06 20:05 60.11421 11.65618 12701 ft 363 kts 82°
2026-05-06 20:05 60.11804 11.70677 13391 ft 371 kts 82°
2026-05-06 20:05 60.12193 11.75839 14040 ft 378 kts 82°
2026-05-06 20:05 60.12586 11.81083 14736 ft 383 kts 82°
2026-05-06 20:06 60.12983 11.86392 15466 ft 387 kts 83°
2026-05-06 20:06 60.13382 11.91780 16146 ft 394 kts 83°
2026-05-06 20:06 60.13787 11.97268 16847 ft 399 kts 83°
2026-05-06 20:06 60.14195 12.02833 17521 ft 405 kts 83°
2026-05-06 20:07 60.14601 12.08402 18192 ft 411 kts 83°
2026-05-06 20:07 60.15015 12.14116 18784 ft 416 kts 83°
2026-05-06 20:07 60.15431 12.19897 19392 ft 421 kts 83°
2026-05-06 20:07 60.15849 12.25741 19998 ft 425 kts 83°
2026-05-06 20:08 60.16269 12.31648 20605 ft 430 kts 83°
2026-05-06 20:08 60.16694 12.37642 21181 ft 435 kts 83°
2026-05-06 20:08 60.17119 12.43690 21741 ft 440 kts 83°
2026-05-06 20:08 60.17541 12.49820 22327 ft 444 kts 84°
2026-05-06 20:09 60.17696 12.56043 22875 ft 447 kts 95°
2026-05-06 20:09 60.17399 12.62191 23434 ft 448 kts 100°
2026-05-06 20:09 60.16986 12.68440 23890 ft 452 kts 101°
2026-05-06 20:09 60.16546 12.74701 24361 ft 455 kts 102°
2026-05-06 20:10 60.16103 12.81018 24846 ft 458 kts 102°
2026-05-06 20:10 60.15664 12.87391 25322 ft 461 kts 102°
2026-05-06 20:10 60.15234 12.93790 25781 ft 464 kts 102°
2026-05-06 20:10 60.14807 13.00225 26282 ft 465 kts 102°
2026-05-06 20:11 60.14383 13.06668 26902 ft 464 kts 102°
2026-05-06 20:11 60.13962 13.13057 27545 ft 461 kts 103°
2026-05-06 20:11 60.13543 13.19374 28136 ft 460 kts 103°
2026-05-06 20:11 60.13117 13.25741 28707 ft 459 kts 104°
2026-05-06 20:12 60.12690 13.32062 28854 ft 455 kts 104°
2026-05-06 20:12 60.12256 13.38401 28944 ft 463 kts 104°
2026-05-06 20:12 60.11342 13.51492 28953 ft 482 kts 104°
2026-05-06 20:13 60.10402 13.64915 28936 ft 486 kts 104°
2026-05-06 20:13 60.09458 13.78298 28925 ft 483 kts 104°
2026-05-06 20:14 60.08506 13.91529 28936 ft 481 kts 104°
2026-05-06 20:14 60.07536 14.04777 28932 ft 479 kts 104°
2026-05-06 20:15 60.07057 14.11289 28913 ft 465 kts 104°
2026-05-06 20:15 60.06593 14.17587 28923 ft 451 kts 105°
2026-05-06 20:15 60.05661 14.29929 28678 ft 446 kts 105°
2026-05-06 20:16 60.05202 14.35962 28357 ft 440 kts 105°
2026-05-06 20:16 60.04741 14.41995 27957 ft 436 kts 105°
2026-05-06 20:16 60.04282 14.47967 27560 ft 432 kts 105°
2026-05-06 20:16 60.03824 14.53883 27158 ft 429 kts 105°
2026-05-06 20:17 60.03365 14.59766 26760 ft 426 kts 105°
2026-05-06 20:17 60.02907 14.65597 26372 ft 423 kts 105°
2026-05-06 20:17 60.02450 14.71402 25972 ft 420 kts 105°
2026-05-06 20:17 60.01993 14.77157 25588 ft 418 kts 104°
2026-05-06 20:18 60.01542 14.82812 25218 ft 415 kts 104°
2026-05-06 20:18 60.01080 14.88569 24826 ft 413 kts 104°
2026-05-06 20:18 60.00630 14.94150 24460 ft 411 kts 104°
2026-05-06 20:18 60.00173 14.99789 24077 ft 409 kts 104°
2026-05-06 20:19 59.99716 15.05392 23698 ft 408 kts 104°
2026-05-06 20:19 59.99258 15.10973 23277 ft 406 kts 104°
2026-05-06 20:19 59.98801 15.16528 22836 ft 404 kts 104°
2026-05-06 20:19 59.98345 15.22040 22461 ft 400 kts 104°
2026-05-06 20:20 59.97890 15.27517 22073 ft 397 kts 104°
2026-05-06 20:20 59.97437 15.32935 21690 ft 394 kts 104°
2026-05-06 20:20 59.96990 15.38252 21323 ft 391 kts 103°
2026-05-06 20:20 59.96539 15.43584 20946 ft 388 kts 103°
2026-05-06 20:21 59.96089 15.48875 20585 ft 385 kts 103°
2026-05-06 20:21 59.95639 15.54141 20217 ft 383 kts 103°
2026-05-06 20:21 59.95191 15.59360 19858 ft 380 kts 103°
2026-05-06 20:21 59.94743 15.64555 19491 ft 378 kts 103°
2026-05-06 20:22 59.94297 15.69703 19139 ft 375 kts 103°
2026-05-06 20:22 59.93852 15.74818 18786 ft 373 kts 103°
2026-05-06 20:22 59.93407 15.79902 18432 ft 371 kts 103°
2026-05-06 20:22 59.92962 15.84965 18048 ft 369 kts 103°
2026-05-06 20:23 59.92519 15.89985 17649 ft 366 kts 103°
2026-05-06 20:23 59.92078 15.94961 17303 ft 363 kts 103°
2026-05-06 20:23 59.91639 15.99893 16939 ft 360 kts 103°
2026-05-06 20:23 59.91206 16.04736 16597 ft 357 kts 103°
2026-05-06 20:24 59.90771 16.09585 16237 ft 354 kts 103°
2026-05-06 20:24 59.90335 16.14409 15888 ft 352 kts 103°
2026-05-06 20:24 59.89903 16.19185 15541 ft 349 kts 103°
2026-05-06 20:24 59.89470 16.23937 15203 ft 347 kts 103°
2026-05-06 20:25 59.89040 16.28644 14855 ft 344 kts 103°
2026-05-06 20:25 59.88615 16.33278 14520 ft 342 kts 103°
2026-05-06 20:25 59.88186 16.37924 14184 ft 340 kts 103°
2026-05-06 20:25 59.87759 16.42543 13863 ft 338 kts 103°
2026-05-06 20:26 59.87332 16.47136 13478 ft 337 kts 103°
2026-05-06 20:26 59.86906 16.51711 13116 ft 334 kts 102°
2026-05-06 20:26 59.86482 16.56241 12781 ft 331 kts 102°
2026-05-06 20:26 59.86060 16.60729 12443 ft 329 kts 102°
2026-05-06 20:27 59.85639 16.65195 12097 ft 327 kts 102°
2026-05-06 20:27 59.85220 16.69617 11766 ft 324 kts 102°
2026-05-06 20:27 59.84807 16.73970 11434 ft 322 kts 102°
2026-05-06 20:27 59.84390 16.78333 11102 ft 320 kts 102°
2026-05-06 20:28 59.83976 16.82670 10765 ft 318 kts 102°
2026-05-06 20:28 59.83562 16.86990 10447 ft 317 kts 102°
2026-05-06 20:28 59.83150 16.91261 10232 ft 311 kts 102°
2026-05-06 20:28 59.82746 16.95432 10086 ft 303 kts 102°
2026-05-06 20:29 59.82420 16.99510 9943 ft 296 kts 91°
2026-05-06 20:29 59.82590 17.03516 9676 ft 293 kts 82°
2026-05-06 20:29 59.82868 17.07513 9379 ft 291 kts 82°
2026-05-06 20:29 59.83131 17.11489 9081 ft 289 kts 82°
2026-05-06 20:30 59.83376 17.15444 8799 ft 287 kts 83°
2026-05-06 20:30 59.83831 17.23279 8245 ft 283 kts 86°
2026-05-06 20:30 59.83546 17.27102 7975 ft 278 kts 112°
2026-05-06 20:31 59.82688 17.30505 7720 ft 274 kts 120°
2026-05-06 20:31 59.82076 17.32651 7542 ft 273 kts 121°
2026-05-06 20:31 59.81252 17.35508 7258 ft 274 kts 121°
2026-05-06 20:31 59.80006 17.39847 6807 ft 269 kts 120°
2026-05-06 20:32 59.79086 17.43079 6472 ft 265 kts 120°
2026-05-06 20:32 59.78494 17.45174 6243 ft 262 kts 120°
2026-05-06 20:32 59.77610 17.48311 5900 ft 258 kts 120°
2026-05-06 20:32 59.76735 17.51408 5613 ft 257 kts 120°
2026-05-06 20:33 59.75864 17.54491 5333 ft 256 kts 120°
2026-05-06 20:33 59.75031 17.57607 5048 ft 255 kts 110°
2026-05-06 20:33 59.74848 17.61054 4741 ft 251 kts 82°
2026-05-06 20:33 59.75225 17.64382 4458 ft 245 kts 76°
2026-05-06 20:34 59.75665 17.67600 4189 ft 239 kts 76°
2026-05-06 20:34 59.76089 17.70699 3951 ft 232 kts 76°
2026-05-06 20:34 59.76502 17.73749 3716 ft 226 kts 76°
2026-05-06 20:34 59.76900 17.76720 3512 ft 220 kts 77°
2026-05-06 20:35 59.77285 17.79620 3350 ft 215 kts 77°
2026-05-06 20:35 59.77662 17.82480 3192 ft 214 kts 77°
2026-05-06 20:35 59.78038 17.85349 3006 ft 215 kts 77°
2026-05-06 20:35 59.78410 17.88197 2813 ft 210 kts 78°
2026-05-06 20:36 59.78763 17.90914 2653 ft 201 kts 78°
2026-05-06 20:36 59.79103 17.93530 2538 ft 190 kts 79°
2026-05-06 20:36 59.79431 17.96069 2514 ft 190 kts 79°
2026-05-06 20:36 59.79585 17.98610 2467 ft 182 kts 108°
2026-05-06 20:37 59.78866 18.00475 2503 ft 173 kts 156°
2026-05-06 20:37 59.77687 18.00586 2519 ft 175 kts 194°
2026-05-06 20:37 59.76491 18.00070 2460 ft 174 kts 189°
2026-05-06 20:37 59.75343 17.99678 2279 ft 161 kts 189°
2026-05-06 20:38 59.74291 17.99303 2062 ft 151 kts 189°
2026-05-06 20:38 59.73275 17.98935 1871 ft 147 kts 189°
2026-05-06 20:38 59.72293 17.98578 1664 ft 139 kts 189°
2026-05-06 20:38 59.71383 17.98247 1500 ft 130 kts 189°
2026-05-06 20:39 59.70501 17.97927 1305 ft 127 kts 189°
2026-05-06 20:39 59.69634 17.97613 1120 ft 126 kts 189°
2026-05-06 20:39 59.68762 17.97296 958 ft 128 kts 188°
2026-05-06 20:39 59.67881 17.96968 780 ft 132 kts 189°
2026-05-06 20:40 59.66976 17.96657 554 ft 131 kts 187°
2026-05-06 20:40 59.66080 17.96334 398 ft 127 kts 189°
2026-05-06 20:40 59.65208 17.96012 251 ft 128 kts 188°
2026-05-06 20:40 59.64342 17.95699 144 ft 122 kts 191°
2026-05-06 20:41 59.63716 17.95469 144 ft 66 kts 191°
2026-05-06 20:41 59.63424 17.95308 142 ft 40 kts 208°
2026-05-06 20:41 59.63266 17.95076 137 ft 11 kts 220°
2026-05-06 20:41 59.63245 17.94960 137 ft 9 kts 281°
2026-05-06 20:42 59.63298 17.94908 137 ft 9 kts
2026-05-06 20:42 59.63361 17.94927 137 ft 9 kts 10°
2026-05-06 20:42 59.63431 17.94952 137 ft 11 kts 10°
2026-05-06 20:42 59.63516 17.94983 137 ft 14 kts 10°
2026-05-06 20:43 59.63600 17.95014 137 ft 17 kts 10°
2026-05-06 20:43 59.63727 17.95060 137 ft 20 kts 11°
2026-05-06 20:43 59.63864 17.95111 137 ft 22 kts
2026-05-06 20:43 59.64018 17.95162 137 ft 24 kts
2026-05-06 20:44 59.64185 17.95230 137 ft 26 kts 12°
2026-05-06 20:44 59.64355 17.95287 137 ft 24 kts 10°
2026-05-06 20:44 59.64514 17.95343 137 ft 23 kts 10°
2026-05-06 20:44 59.64667 17.95399 137 ft 22 kts 11°
2026-05-06 20:45 59.64816 17.95456 137 ft 21 kts 10°
2026-05-06 20:45 59.64959 17.95509 137 ft 21 kts 10°
2026-05-06 20:45 59.65099 17.95480 137 ft 20 kts 345°
2026-05-06 20:45 59.65233 17.95412 137 ft 20 kts 346°
2026-05-06 20:46 59.65363 17.95345 137 ft 19 kts 345°
2026-05-06 20:46 59.65489 17.95281 137 ft 18 kts 345°
2026-05-06 20:46 59.65610 17.95217 137 ft 18 kts 345°
2026-05-06 20:46 59.65725 17.95154 137 ft 14 kts 344°
2026-05-06 20:47 59.65798 17.95112 137 ft 10 kts 336°
2026-05-06 20:47 59.65830 17.95002 137 ft 10 kts 270°
2026-05-06 20:47 59.65813 17.94850 137 ft 13 kts 256°
2026-05-06 20:47 59.65787 17.94644 137 ft 18 kts 256°
2026-05-06 20:48 59.65754 17.94383 137 ft 22 kts 256°
2026-05-06 20:48 59.65713 17.94075 137 ft 24 kts 256°
2026-05-06 20:48 59.65674 17.93759 137 ft 23 kts 256°
2026-05-06 20:48 59.65635 17.93456 137 ft 22 kts 256°
2026-05-06 20:49 59.65598 17.93163 137 ft 22 kts 256°
2026-05-06 20:49 59.65562 17.92878 137 ft 21 kts 256°
2026-05-06 20:49 59.65526 17.92604 137 ft 16 kts 255°
2026-05-06 20:49 59.65486 17.92455 137 ft 12 kts 223°
2026-05-06 20:50 59.65425 17.92343 137 ft 10 kts 224°
2026-05-06 20:50 59.65364 17.92275 137 ft 10 kts 187°
2026-05-06 20:50 59.65305 17.92334 137 ft 10 kts 118°
2026-05-06 20:50 59.65280 17.92463 137 ft 10 kts 111°
2026-05-06 20:51 59.65257 17.92579 137 ft 7 kts 111°
2026-05-06 20:51 59.65238 17.92672 137 ft 7 kts 111°
2026-05-06 20:51 59.65221 17.92772 137 ft 8 kts 105°
2026-05-06 20:51 59.65217 17.92849 137 ft 4 kts 84°
2026-05-06 20:52 59.65227 17.92910 137 ft 5 kts 71°
2026-05-06 20:52 59.65238 17.92977 137 ft 5 kts 71°
2026-05-06 20:52 59.65242 17.92996 137 ft 0 kts 70°